Date String (YYYY-MM-DD hh:mm:ss) UTC,Instrument flags,absolute air pressure of the measurement (hPa),sample flow rate (lpm),inlet stack bypass flow (lpm),air temperature of the measurement (°C),ambient temperature measured by the external sensor (°C),aerosol sample conditioner tube jacket temperature (°C),OPC LED temperature (°C),internal box temperature (°C),relative humidity of the measurement (%),span deviation,mass concentration of particles derived from Lorenz-Mie calculation of OPC scattering (μg/m³),mass concentration of particles derived from Lorenz-Mie calculation of OPC scattering (μg/m³),mass concentration of particles derived from Lorenz-Mie calculation of OPC scattering (μg/m³)
DateTimeUTC,F1_M11,P_M11,Q1_M11,Q2_M11,T1_M11,T2_M11,T3_M11,T4_M11,T5_M11,U1_M11,ZSPAN_M11,X0_M11,X2_M11,X1_M11
2023-08-10 16:00:00,SystemResetWarning,0829.7,5.01,000.00,029.7,025.6,000.0,037.9,031.0,26.4,0000.0,0011.88,0006.38,0005.60
2023-08-10 16:01:00,SystemResetWarning,0829.7,5.00,000.00,029.6,025.8,000.0,037.9,030.8,26.0,0000.0,0012.18,0006.41,0005.60
2023-08-10 16:02:00,SystemResetWarning,0829.7,5.01,000.00,029.5,026.2,000.0,038.0,030.8,26.6,0000.0,0013.03,0006.41,0005.60
2023-08-10 16:03:00,SystemResetWarning,0829.7,4.99,000.00,029.5,026.5,000.0,038.0,030.9,26.7,0000.0,0013.29,0006.46,0005.61
2023-08-10 16:04:00,SystemResetWarning,0829.8,5.00,000.00,029.5,026.9,000.0,038.0,031.0,27.4,0000.0,0012.94,0006.49,0005.60
2023-08-10 16:05:00,SystemResetWarning,0829.8,5.00,000.00,029.5,027.2,000.0,038.0,031.0,26.5,0000.0,0013.44,0006.50,0005.59
2023-08-10 16:06:00,SystemResetWarning,0829.7,5.00,000.00,029.5,027.5,000.0,038.0,031.1,26.3,0000.0,0014.10,0006.54,0005.60
2023-08-10 16:07:00,SystemResetWarning,0829.7,5.00,000.00,029.5,027.8,000.0,038.1,031.2,25.5,0000.0,0013.62,0006.53,0005.59
2023-08-10 16:08:00,SystemResetWarning,0829.7,4.99,000.00,029.6,027.9,000.0,038.1,031.2,26.0,0000.0,0013.40,0006.51,0005.59
2023-08-10 16:09:00,SystemResetWarning,0829.7,5.00,000.00,029.6,028.1,000.0,038.1,031.3,25.9,0000.0,0013.59,0006.45,0005.59
2023-08-10 16:10:00,SystemResetWarning,0829.7,5.00,000.00,029.6,028.3,000.0,038.1,031.3,24.9,0000.0,0013.59,0006.42,0005.59
2023-08-10 16:11:00,SystemResetWarning,0829.7,5.00,000.00,029.6,028.4,000.0,038.1,031.4,23.8,0000.0,0013.43,0006.35,0005.57
2023-08-10 16:12:00,SystemResetWarning,0829.7,4.99,000.00,029.7,027.6,000.0,038.1,031.3,24.6,0000.0,0013.14,0006.32,0005.55
2023-08-10 16:13:00,SystemResetWarning,0829.7,5.00,000.00,029.6,026.0,000.0,037.9,031.1,24.5,0000.0,0012.21,0006.30,0005.53
2023-08-10 16:14:00,SystemResetWarning,0829.7,5.02,000.00,029.6,025.5,000.0,037.8,030.9,25.6,0001.2,0011.81,0006.26,0005.54
2023-08-10 16:15:00,SystemResetWarning,0829.7,4.99,000.00,029.5,025.8,000.0,037.9,030.8,26.4,0001.2,0011.93,0006.26,0005.53
2023-08-10 16:16:00,SystemResetWarning,0829.7,5.00,000.00,029.4,026.2,000.0,037.9,030.8,27.0,0000.4,0012.35,0006.27,0005.54
2023-08-10 16:17:00,SystemResetWarning,0829.7,5.01,000.00,029.4,026.5,000.0,037.9,030.9,26.6,0000.1,0012.33,0006.26,0005.53
2023-08-10 16:18:00,SystemResetWarning,0829.7,4.99,000.00,029.4,026.9,000.0,038.0,030.9,26.6,0000.1,0012.32,0006.27,0005.53
2023-08-10 16:19:00,SystemResetWarning,0829.7,5.00,000.00,029.4,027.2,000.0,038.0,031.0,26.8,0000.0,0012.24,0006.23,0005.52
2023-08-10 16:20:00,SystemResetWarning,0829.7,5.00,000.00,029.4,027.5,000.0,038.0,031.1,26.5,0000.0,0012.17,0006.20,0005.52
2023-08-10 16:21:00,SystemResetWarning,0829.7,5.00,000.00,029.5,027.7,000.0,038.0,031.1,26.1,0000.0,0012.03,0006.20,0005.51
2023-08-10 16:22:00,SystemResetWarning,0829.7,5.01,000.00,029.5,027.9,000.0,038.0,031.2,26.0,0000.0,0012.43,0006.22,0005.50
2023-08-10 16:23:00,SystemResetWarning,0829.7,5.00,000.00,029.5,028.1,000.0,038.0,031.3,25.7,0000.0,0012.40,0006.25,0005.52
2023-08-10 16:24:00,SystemResetWarning,0829.7,5.00,000.00,029.6,028.3,000.0,038.1,031.3,25.4,0000.0,0013.67,0006.26,0005.52
2023-08-10 16:25:00,SystemResetWarning,0829.7,5.00,000.00,029.6,028.3,000.0,038.1,031.3,26.4,0000.0,0014.25,0006.29,0005.52
2023-08-10 16:26:00,SystemResetWarning,0829.7,4.99,000.00,029.6,027.3,000.0,038.0,031.2,26.8,0000.0,0014.09,0006.27,0005.52
2023-08-10 16:27:00,SystemResetWarning,0829.6,5.01,000.00,029.6,025.7,000.0,037.8,030.9,26.3,0000.0,0013.56,0006.24,0005.52
2023-08-10 16:28:00,SystemResetWarning,0829.6,5.02,000.00,029.5,025.5,000.0,037.8,030.8,26.4,0000.0,0012.49,0006.21,0005.51
2023-08-10 16:29:00,SystemResetWarning,0829.6,5.00,000.00,029.4,025.8,000.0,037.8,030.7,27.1,0000.0,0013.26,0006.19,0005.51
2023-08-10 16:30:00,SystemResetWarning,0829.6,5.00,000.00,029.4,026.2,000.0,037.8,030.8,26.2,0000.0,0013.95,0006.19,0005.51
2023-08-10 16:31:00,SystemResetWarning,0829.6,5.00,000.00,029.3,026.5,000.0,037.9,030.8,27.2,0000.0,0014.24,0006.22,0005.51
2023-08-10 16:32:00,SystemResetWarning,0829.6,4.99,000.00,029.4,026.9,000.0,037.9,030.9,27.3,0000.0,0014.47,0006.20,0005.50
2023-08-10 16:33:00,SystemResetWarning,0829.6,5.00,000.00,029.4,027.2,000.0,037.9,031.0,27.0,0000.0,0014.38,0006.21,0005.51
2023-08-10 16:34:00,SystemResetWarning,0829.6,5.00,000.00,029.4,027.5,000.0,037.9,031.1,27.5,-000.2,0014.42,0006.24,0005.52
2023-08-10 16:35:00,SystemResetWarning,0829.6,5.01,000.00,029.4,027.7,000.0,037.9,031.1,27.0,-000.2,0013.09,0006.23,0005.54
2023-08-10 16:36:00,SystemResetWarning,0829.6,5.00,000.00,029.5,027.9,000.0,038.0,031.2,26.9,0000.0,0012.57,0006.21,0005.54
2023-08-10 16:37:00,SystemResetWarning,0829.6,5.00,000.00,029.5,028.1,000.0,038.0,031.2,26.3,0000.0,0012.69,0006.23,0005.54
2023-08-10 16:38:00,SystemResetWarning,0829.5,5.00,000.00,029.5,028.3,000.0,038.0,031.3,26.3,0000.0,0012.83,0006.27,0005.55
2023-08-10 16:39:00,SystemResetWarning,0829.5,4.99,000.00,029.6,027.8,000.0,037.9,031.2,27.0,-000.0,0012.91,0006.28,0005.56
2023-08-10 16:40:00,SystemResetWarning,0829.4,5.00,000.00,029.5,026.1,000.0,037.8,031.0,27.4,0000.6,0012.24,0006.30,0005.58
2023-08-10 16:41:00,SystemResetWarning,0829.4,5.00,000.00,029.5,025.4,000.0,037.7,030.8,27.6,0000.9,0011.53,0006.32,0005.59
2023-08-10 16:42:00,SystemResetWarning,0829.4,5.01,000.00,029.4,025.6,000.0,037.7,030.7,28.1,0000.5,0011.08,0006.29,0005.60
2023-08-10 16:43:00,SystemResetWarning,0829.5,5.00,000.00,029.3,026.0,000.0,037.8,030.7,28.6,0000.0,0010.52,0006.32,0005.61
2023-08-10 16:44:00,SystemResetWarning,0829.5,5.00,000.00,029.3,026.4,000.0,037.8,030.8,28.8,0000.0,0010.33,0006.28,0005.63
2023-08-10 16:45:00,SystemResetWarning,0829.6,5.00,000.00,029.3,026.8,000.0,037.8,030.9,29.4,0000.0,0010.09,0006.23,0005.63
2023-08-10 16:46:00,SystemResetWarning,0829.6,5.00,000.00,029.3,027.1,000.0,037.8,030.9,29.8,0000.0,0010.01,0006.22,0005.63
2023-08-10 16:47:00,SystemResetWarning,0829.7,4.99,000.00,029.3,027.4,000.0,037.9,031.0,29.0,0000.0,0010.54,0006.23,0005.65
2023-08-10 16:48:00,SystemResetWarning,0829.7,4.99,000.00,029.4,027.6,000.0,037.9,031.1,28.5,0000.0,0010.50,0006.24,0005.66
2023-08-10 16:49:00,SystemResetWarning,0829.7,5.01,000.00,029.4,027.8,000.0,037.9,031.1,27.9,0000.0,0010.43,0006.23,0005.66
2023-08-10 16:50:00,SystemResetWarning,0829.6,5.01,000.00,029.4,028.0,000.0,037.9,031.2,27.8,0000.0,0010.75,0006.25,0005.66
2023-08-10 16:51:00,SystemResetWarning,0829.6,5.00,000.00,029.5,028.2,000.0,037.9,031.2,28.1,0000.0,0010.81,0006.23,0005.68
2023-08-10 16:52:00,SystemResetWarning,0829.5,4.98,000.00,029.5,027.4,000.0,037.9,031.2,27.9,0000.0,0011.02,0006.23,0005.69
2023-08-10 16:53:00,SystemResetWarning,0829.5,5.00,000.00,029.5,025.8,000.0,037.7,030.9,28.6,0000.0,0011.07,0006.29,0005.71
2023-08-10 16:54:00,SystemResetWarning,0829.4,5.01,000.00,029.4,025.4,000.0,037.6,030.8,27.7,0000.0,0011.44,0006.36,0005.72
2023-08-10 16:55:00,SystemResetWarning,0829.3,5.01,000.00,029.3,025.7,000.0,037.7,030.6,27.1,0000.0,0011.64,0006.38,0005.72
2023-08-10 16:56:00,SystemResetWarning,0829.3,5.00,000.00,029.3,026.0,000.0,037.7,030.7,25.5,0000.0,0012.02,0006.39,0005.72
2023-08-10 16:57:00,SystemResetWarning,0829.3,5.00,000.00,029.2,026.5,000.0,037.7,030.7,25.9,0000.0,0012.47,0006.39,0005.72
2023-08-10 16:58:00,SystemResetWarning,0829.3,5.01,000.00,029.3,026.9,000.0,037.8,030.8,25.5,0000.0,0012.29,0006.42,0005.72
2023-08-10 16:59:00,SystemResetWarning,0829.4,5.01,000.00,029.3,027.2,000.0,037.8,030.9,25.8,0000.0,0012.61,0006.44,0005.73
